Platzwetter & Webcam am Flugplatz Wels

Flugwetter Linz LOWL

[Quelle: ADDS]
METAR
LOWL 270750Z 09011KT 060V120 CAVOK 12/05 Q1016 NOSIG =
TAF
LOWL 270515Z 2706/2806 08004KT CAVOK TX22/2715Z TN07/2706Z BECMG 2706/2708 11012KT 9999 FEW050 BECMG 2718/2720 09004KT CAVOK =

Flugwetter Salzburg LOWS

[Quelle: ADDS]
METAR
LOWS 270750Z VRB02KT CAVOK 11/07 Q1015 NOSIG =
TAF
LOWS 270515Z 2706/2806 VRB02KT CAVOK TX22/2715Z TN05/2706Z BECMG 2707/2709 03007KT 9999 FEW060 BKN300 PROB30 TEMPO 2715/2718 FEW050CB FEW060 BECMG 2718/2720 15005KT FEW080 BKN200 =

Webcam - letzten 24 Stunden

  • 0
  • 1
  • 2
  • 3
  • 4
  • 5
  • 6
  • 7
  • 8
  • 9
  • 10
  • 11
  • 12
  • 13
  • 14
  • 15
  • 16
  • 17
  • 18
  • 19
  • 20
  • 21
  • 22
  • 23

    Wind - Verlauf

    Windrichtung - Verlauf

    Temperatur - Verlauf

    Relative Luftfeuchtigkeit - Verlauf

    Luftdruck - Verlauf


    JU 52 Nostalgie-Rundflüge - hier am Flugplatz Wels!

    Tickets, Termine und Infos, hier am Flugplatz Wels. Tickethotline +43 7242 26499 0

    Pilot für einen Tag - Erfülle Dir den Traum vom Fliegen!

    Werde einen Tag lang Pilot bei und mit dem Fliegerclub Weiße Möwe in Wels!

    Stadt - Wels

    Ausflugsziele & Sehenswürdigkeiten
    in Wels und Umgebung

    Cookies erleichtern die Bereitstellung unserer Dienste. Mit der Nutzung unserer Dienste erklären Sie sich damit einverstanden, dass wir Cookies verwenden.
    Weitere Informationen